Regional Weather Roundup
Issued by NWS Charleston, SC

Current Version | Previous Version | Graphics & Text | Print | Product List | Glossary On
Versions: 1 2 3 4 5 6 7 8 9 10 11 12 13 14 15 16 17 18 19 20 21 22 23 24 25 26 27 28 29 30 31 32 33 34 35 36 37 38 39 40 41 42 43 44 45 46 47 48 49 50
000
ASUS42 KCHS 180612
RWRCHS

REGIONAL WEATHER ROUNDUP
NATIONAL WEATHER SERVICE CHARLESTON SC
100 AM EST WED JAN 18 2017

NOTE: "FAIR" INDICATES FEW OR NO CLOUDS BELOW 12,000 FEET WITH NO
SIGNIFICANT WEATHER AND/OR OBSTRUCTIONS TO VISIBILITY.

NOT ALL STATIONS ARE QUALITY CONTROLLED. USE DATA WITH CAUTION...
ESPECIALLY DEWPOINT OBSERVATIONS.

SCZ027-030-031-034>040-042>050-180700-
...SOUTHEAST SOUTH CAROLINA...

CITY           SKY/WX    TMP DP  RH WIND       PRES   REMARKS
N CHARLESTON   PTCLDY    61  57  87 SW9       30.13F
6HR MIN TEMP:  59; 6HR MAX TEMP:  65;

WATERFRONT PRK   N/A     62  60  93 SW7       30.12F
MOUNT PLEASANT FAIR      63  61  94 SW8       30.13F
JOHNS ISLAND   FAIR      64  61  88 SW8G15    30.14F
PINOPOLIS        N/A    N/A N/A N/A SW7       30.03F
MONCKS CORNER  FAIR      59  55  88 SW5       30.13S
SUMMERVILLE    FAIR      59  59 100 S3        30.14S
BEAUFORT MCAS  CLOUDY    60  58  92 SW7       30.14F
6HR MIN TEMP:  60; 6HR MAX TEMP:  63;

BEAUFORT ARPT  FAIR      61  59  94 SW6       30.15S
HILTON HEAD IS PTCLDY    64  61  88 S8        30.16F
WALTERBORO     PTCLDY    63 N/A N/A SW6       30.14S
ALLENDALE      FAIR      63  57  82 CALM      30.11F

...SOUTHERN MIDLANDS AND PEE DEE...

CITY           SKY/WX    TMP DP  RH WIND       PRES   REMARKS
GEORGETOWN     FAIR      59  57  94 SW9       30.11F
KINGSTREE      FAIR      61  55  82 S3        30.09F
ORANGEBURG     PTCLDY    62  57  83 SW6       30.10F
6HR MIN TEMP:  60; 6HR MAX TEMP:  67;

BARNWELL       FAIR      64  59  82 SW8       30.11F
AIKEN          FAIR      61  55  82 SW8       30.14F
MANNING        FAIR      61  55  82 SW7       30.11S
COLUMBIA       MOCLDY    65  55  70 SW6       30.07F
6HR MIN TEMP:  62; 6HR MAX TEMP:  68;

SUMTER         PTCLDY    62  56  82 S10       30.05F
6HR MIN TEMP:  59; 6HR MAX TEMP:  65;

FLORENCE       PTCLDY    63  58  83 SW12      30.07F
6HR MIN TEMP:  60; 6HR MAX TEMP:  63;

MYRTLE BEACH   MOCLDY    64  57  77 SW9       30.11F
N MYRTLE BEACH PTCLDY    58  57  97 SW13      30.08F
6HR MIN TEMP:  56; 6HR MAX TEMP:  59;


$$

GAZ063-065-086>088-099>101-113>116-118-119-134>141-150-180700-
...SOUTHEAST GEORGIA...

CITY           SKY/WX    TMP DP  RH WIND       PRES   REMARKS
SAVANNAH ARPT  CLEAR     61  57  87 SW7       30.16F
6HR MIN TEMP:  61; 6HR MAX TEMP:  65;

HUNTER AAF     CLEAR     62  61  97 SW6       30.14F
6HR MIN TEMP:  61; 6HR MAX TEMP:  63;

FORT STEWART   PTCLDY    57  56  94 CALM      30.14F
6HR MIN TEMP:  57; 6HR MAX TEMP:  64;

STATESBORO     PTCLDY    64  60  86 SW5       30.14F
SYLVANIA       PTCLDY   N/A N/A N/A SW3       30.15F
CLAXTON        FAIR     N/A N/A N/A CALM      30.16F

...CSRA...CENTRAL AND FAR SOUTHEAST GEORGIA...

CITY           SKY/WX    TMP DP  RH WIND       PRES   REMARKS
THOMSON        CLOUDY    66  60  81 SW5       30.15F
AUGUSTA-BUSH   MOCLDY    65  56  72 SW3       30.10F
6HR MIN TEMP:  61; 6HR MAX TEMP:  70;

AUGUSTA-DANIEL PTCLDY    65  55  70 SW7       30.11F
SWAINSBORO     FAIR      63  59  88 CALM      30.15F
VIDALIA        CLOUDY    63  61  94 SW6       30.16F
EASTMAN        FAIR      65  54  67 CALM      30.18F
HAZLEHURST     FAIR      64  62  94 SW3       30.16F
ALMA           CLOUDY    62  60  93 SW5       30.17F
6HR MIN TEMP:  57; 6HR MAX TEMP:  65;

WAYCROSS       CLOUDY    62  62 100 SW5       30.18F
JESUP          FAIR      55  54  94 CALM      30.18F
BAXLEY         FAIR      63  63 100 CALM      30.17F
BRUNSWICK      PTCLDY    61  61 100 SW6       30.19S
SAINT SIMONS   CLOUDY    62  59  90 SW7       30.17F
6HR MIN TEMP:  61; 6HR MAX TEMP:  65;


$$

SCZ027-028-034-036>038-045-046-048>050-GAZ119-141-180700-
...LAKE AND SUPPLEMENTAL COASTAL OBSERVATIONS...

STATION/POSITION TIME  TEMP    WIND        PRES    WAVE   SWELL
                       AIR SEA DIR/SP/G            HT/PER HT/PER/DIR
                 (UTC) (F)     (DEG/KT/KT) (MB)    (FT/S) (FT/S/D)
WINYAH BAY       NOT AVBL
LAKE MURRAY      0520   64     220/  9/ 11 1018.3F
ACE BASIN NERRS  0445   57        CALM     1022.0
FORT PULASKI     0548          210/  6/  9 1021.5F
SAPELO ISLAND    0500   59     190/  4     1022.0

$$

ANZ835-935-AMZ111-154-330-350-352-354-370-450-454-472-180700-
...C-MAN AND BUOY OBSERVATIONS...

STATION/POSITION TIME  TEMP    WIND        PRES    WAVE   SWELL
                       AIR SEA DIR/SP/G            HT/PER HT/PER/DIR
                 (UTC) (F)     (DEG/KT/KT) (MB)    (FT/S) (FT/S/D)
BUOY 41004       0450   71 70  220/ 14/ 16 1020.6    3/ 9   2/110/ 9
BUOY 41008       0450   63 60  190/ 10/ 10 1021.8    2/ 8   2/ 90/ 8
FOLLY BEACH CMAN 0500   61     230/  8/ 11 1021.6F
CAPERS NEARSHORE 0508   57 54  240/ 10/ 12 1020.7F
FRIPP NEARSHORE  0508   59 57  220/  8/ 10 1021.0F


STATION/POSITION TIME  TEMP    WIND        PRES    WAVE   SWELL
                       AIR SEA DIR/SP/G            HT/PER HT/PER/DIR
                 (UTC) (F)     (DEG/KT/KT) (MB)    (FT/S) (FT/S/D)
5E ST. MARYS GA  0530      61                N/A     2/11
FRYING PAN BUOY  0550   71 72  220/ 19/ 23 1019.0F   4/ 4   2/ 90/ 9
BUOY 41025       0550   71 72  220/ 25/ 29 1015.5F   4/ 5   2/350/10
CAPE LOOKOUT NC  0500   64     220/ 12/ 18 1018.0F
BUOY 41002       0550   72 72  210/ 16/ 19 1021.7F   3/ 4   2/ 80/ 8
BUOY 41010       NOT AVBL
ST AUGUSTINE FL  0600   64 62  230/  5/  6 1023.2F


$$



USA.gov is the U.S. government's official web portal to all federal, state and local government web resources and services.